Location: Bo?a Wola
(50.4192°N, 19.7966°E)
Time: 21:28:27
(UTC+00:00)

Cosmos 1455 Rocket - Pass Details

Date: 18 September 2024
Orbit: 601 x 623 km, 82.5° (Epoch: 13 October)

Event Time Altitude Azimuth Distance (km) Brightness Sun altitude
Exits shadow 01:58:42 17° 317° (NW) 1,580 5.0 -22.2°
Drops below altitude 10° 02:00:30 10° 340° (NNW) 1,968 5.8 -22.0°
Sets 02:03:20 0° 359° (N) 2,882 6.9 -21.6°
